Time,TemperatureF,DewpointF,PressureIn,WindDirection,WindDirectionDegrees,WindSpeedMPH,WindSpeedGustMPH,Humidity,HourlyPrecipIn,Conditions,Clouds,dailyrainin,SoftwareType,DateUTC
2013-01-05 00:04:00,32.0,20.1,29.47,West,270,6.0,16.0,61,0.00,,,0.00,Weather View 32 v70,2013-01-05 05:04:00,
2013-01-05 00:05:00,32.0,20.1,29.47,West,270,6.0,16.0,61,0.00,,,0.00,Weather View 32 v70,2013-01-05 05:05:00,
2013-01-05 00:09:00,33.0,21.0,29.46,West,270,9.0,16.0,61,0.00,,,0.00,Weather View 32 v70,2013-01-05 05:09:00,
2013-01-05 00:14:00,33.0,20.6,29.46,West,270,9.0,16.0,60,0.00,,,0.00,Weather View 32 v70,2013-01-05 05:14:00,
2013-01-05 00:19:00,33.0,21.0,29.46,West,270,8.0,16.0,61,0.00,,,0.00,Weather View 32 v70,2013-01-05 05:19:00,
2013-01-05 00:24:00,32.0,20.4,29.46,West,270,9.0,16.0,62,0.00,,,0.00,Weather View 32 v70,2013-01-05 05:24:00,
2013-01-05 00:29:00,32.0,20.4,29.47,SW,225,8.0,16.0,62,0.00,,,0.00,Weather View 32 v70,2013-01-05 05:29:00,
2013-01-05 00:34:00,32.0,20.4,29.47,NW,315,6.0,16.0,62,0.00,,,0.00,Weather View 32 v70,2013-01-05 05:34:00,
2013-01-05 00:39:00,32.0,20.4,29.46,West,270,10.0,19.0,62,0.00,,,0.00,Weather View 32 v70,2013-01-05 05:39:00,
2013-01-05 00:44:00,32.0,20.8,29.46,NW,315,4.0,19.0,63,0.00,,,0.00,Weather View 32 v70,2013-01-05 05:44:00,
2013-01-05 00:49:00,32.0,20.8,29.47,NW,315,7.0,19.0,63,0.00,,,0.00,Weather View 32 v70,2013-01-05 05:49:00,
2013-01-05 00:54:00,32.0,20.8,29.47,SW,225,7.0,19.0,63,0.00,,,0.00,Weather View 32 v70,2013-01-05 05:54:00,
2013-01-05 00:59:00,32.0,21.2,29.47,West,270,6.0,19.0,64,0.00,,,0.00,Weather View 32 v70,2013-01-05 05:59:00,
2013-01-05 01:04:00,32.0,21.2,29.47,West,270,8.0,19.0,64,0.00,,,0.00,Weather View 32 v70,2013-01-05 06:04:00,
2013-01-05 01:09:00,32.0,21.6,29.47,WNW,292,7.0,19.0,65,0.00,,,0.00,Weather View 32 v70,2013-01-05 06:09:00,
2013-01-05 01:14:00,32.0,21.6,29.47,West,270,7.0,19.0,65,0.00,,,0.00,Weather View 32 v70,2013-01-05 06:14:00,
2013-01-05 01:19:00,31.0,20.6,29.47,West,270,5.0,19.0,65,0.00,,,0.00,Weather View 32 v70,2013-01-05 06:19:00,
2013-01-05 01:24:00,31.0,20.6,29.47,WSW,247,10.0,19.0,65,0.00,,,0.00,Weather View 32 v70,2013-01-05 06:24:00,
2013-01-05 01:29:00,31.0,20.6,29.48,West,270,3.0,19.0,65,0.00,,,0.00,Weather View 32 v70,2013-01-05 06:29:00,
2013-01-05 01:34:00,31.0,20.6,29.48,West,270,6.0,19.0,65,0.00,,,0.00,Weather View 32 v70,2013-01-05 06:34:00,
2013-01-05 01:39:00,31.0,21.0,29.49,WNW,292,4.0,19.0,66,0.00,,,0.00,Weather View 32 v70,2013-01-05 06:39:00,
2013-01-05 01:44:00,31.0,21.0,29.49,West,270,5.0,15.0,66,0.00,,,0.00,Weather View 32 v70,2013-01-05 06:44:00,
2013-01-05 01:49:00,31.0,21.0,29.49,West,270,6.0,15.0,66,0.00,,,0.00,Weather View 32 v70,2013-01-05 06:49:00,
2013-01-05 01:54:00,31.0,21.0,29.49,West,270,4.0,15.0,66,0.00,,,0.00,Weather View 32 v70,2013-01-05 06:54:00,
2013-01-05 01:59:00,31.0,21.0,29.50,NW,315,6.0,12.0,66,0.00,,,0.00,Weather View 32 v70,2013-01-05 06:59:00,
2013-01-05 02:04:00,32.0,21.9,29.50,West,270,5.0,12.0,66,0.00,,,0.00,Weather View 32 v70,2013-01-05 07:04:00,
2013-01-05 02:09:00,32.0,21.9,29.50,NW,315,4.0,13.0,66,0.00,,,0.00,Weather View 32 v70,2013-01-05 07:09:00,
2013-01-05 02:14:00,32.0,21.9,29.50,NW,315,6.0,13.0,66,0.00,,,0.00,Weather View 32 v70,2013-01-05 07:14:00,
2013-01-05 02:19:00,32.0,21.9,29.50,West,270,7.0,13.0,66,0.00,,,0.00,Weather View 32 v70,2013-01-05 07:19:00,
2013-01-05 02:24:00,32.0,21.9,29.50,NW,315,2.0,13.0,66,0.00,,,0.00,Weather View 32 v70,2013-01-05 07:24:00,
2013-01-05 02:29:00,32.0,21.9,29.51,West,270,5.0,13.0,66,0.00,,,0.00,Weather View 32 v70,2013-01-05 07:29:00,
2013-01-05 02:34:00,32.0,22.3,29.51,West,270,6.0,13.0,67,0.00,,,0.00,Weather View 32 v70,2013-01-05 07:34:00,
2013-01-05 02:39:00,32.0,21.9,29.51,West,270,2.0,13.0,66,0.00,,,0.00,Weather View 32 v70,2013-01-05 07:39:00,
2013-01-05 02:44:00,32.0,21.9,29.51,WNW,292,7.0,13.0,66,0.00,,,0.00,Weather View 32 v70,2013-01-05 07:44:00,
2013-01-05 02:49:00,32.0,21.9,29.49,WNW,292,4.0,13.0,66,0.00,,,0.00,Weather View 32 v70,2013-01-05 07:49:00,
2013-01-05 02:54:00,32.0,22.3,29.49,NW,315,4.0,13.0,67,0.00,,,0.00,Weather View 32 v70,2013-01-05 07:54:00,
2013-01-05 02:59:00,32.0,22.3,29.50,West,270,7.0,13.0,67,0.00,,,0.00,Weather View 32 v70,2013-01-05 07:59:00,
2013-01-05 03:04:00,32.0,22.6,29.50,NW,315,6.0,13.0,68,0.00,,,0.00,Weather View 32 v70,2013-01-05 08:04:00,
2013-01-05 03:09:00,32.0,22.6,29.50,NW,315,8.0,13.0,68,0.00,,,0.00,Weather View 32 v70,2013-01-05 08:09:00,
2013-01-05 03:14:00,32.0,22.6,29.50,West,270,7.0,15.0,68,0.00,,,0.00,Weather View 32 v70,2013-01-05 08:14:00,
2013-01-05 03:19:00,32.0,22.6,29.51,WNW,292,2.0,15.0,68,0.00,,,0.00,Weather View 32 v70,2013-01-05 08:19:00,
2013-01-05 03:24:00,32.0,22.6,29.51,West,270,5.0,15.0,68,0.00,,,0.00,Weather View 32 v70,2013-01-05 08:24:00,
2013-01-05 03:29:00,32.0,23.0,29.51,West,270,3.0,15.0,69,0.00,,,0.00,Weather View 32 v70,2013-01-05 08:29:00,
2013-01-05 03:34:00,32.0,23.0,29.51,West,270,3.0,15.0,69,0.00,,,0.00,Weather View 32 v70,2013-01-05 08:34:00,
2013-01-05 03:39:00,31.0,22.4,29.52,West,270,7.0,15.0,70,0.00,,,0.00,Weather View 32 v70,2013-01-05 08:39:00,
2013-01-05 03:44:00,31.0,22.4,29.52,WSW,247,3.0,15.0,70,0.00,,,0.00,Weather View 32 v70,2013-01-05 08:44:00,
2013-01-05 03:49:00,32.0,23.3,29.52,WNW,292,4.0,16.0,70,0.00,,,0.00,Weather View 32 v70,2013-01-05 08:49:00,
2013-01-05 03:54:00,32.0,23.3,29.52,West,270,6.0,16.0,70,0.00,,,0.00,Weather View 32 v70,2013-01-05 08:54:00,
2013-01-05 03:59:00,32.0,23.3,29.53,West,270,3.0,16.0,70,0.00,,,0.00,Weather View 32 v70,2013-01-05 08:59:00,
2013-01-05 04:04:00,32.0,23.3,29.53,NW,315,7.0,16.0,70,0.00,,,0.00,Weather View 32 v70,2013-01-05 09:04:00,
2013-01-05 04:09:00,32.0,23.3,29.52,NW,315,5.0,16.0,70,0.00,,,0.00,Weather View 32 v70,2013-01-05 09:09:00,
2013-01-05 04:14:00,32.0,23.3,29.52,West,270,6.0,16.0,70,0.00,,,0.00,Weather View 32 v70,2013-01-05 09:14:00,
2013-01-05 04:19:00,32.0,23.3,29.52,West,270,6.0,16.0,70,0.00,,,0.00,Weather View 32 v70,2013-01-05 09:19:00,
2013-01-05 04:24:00,32.0,23.7,29.52,WNW,292,8.0,16.0,71,0.00,,,0.00,Weather View 32 v70,2013-01-05 09:24:00,
2013-01-05 04:29:00,32.0,23.3,29.52,West,270,9.0,16.0,70,0.00,,,0.00,Weather View 32 v70,2013-01-05 09:29:00,
2013-01-05 04:34:00,32.0,23.7,29.52,SW,225,7.0,16.0,71,0.00,,,0.00,Weather View 32 v70,2013-01-05 09:34:00,
2013-01-05 04:39:00,32.0,23.7,29.53,NW,315,9.0,16.0,71,0.00,,,0.00,Weather View 32 v70,2013-01-05 09:39:00,
2013-01-05 04:44:00,32.0,24.0,29.53,WNW,292,8.0,16.0,72,0.00,,,0.00,Weather View 32 v70,2013-01-05 09:44:00,
2013-01-05 04:49:00,31.0,23.0,29.53,West,270,6.0,16.0,72,0.00,,,0.00,Weather View 32 v70,2013-01-05 09:49:00,
2013-01-05 04:54:00,31.0,23.4,29.53,West,270,6.0,16.0,73,0.00,,,0.00,Weather View 32 v70,2013-01-05 09:54:00,
2013-01-05 04:59:00,31.0,23.4,29.55,West,270,5.0,16.0,73,0.00,,,0.00,Weather View 32 v70,2013-01-05 09:59:00,
2013-01-05 05:04:00,31.0,23.4,29.55,NW,315,4.0,16.0,73,0.00,,,0.00,Weather View 32 v70,2013-01-05 10:04:00,
2013-01-05 05:09:00,31.0,23.7,29.55,NW,315,7.0,16.0,74,0.00,,,0.00,Weather View 32 v70,2013-01-05 10:09:00,
2013-01-05 05:14:00,31.0,23.7,29.55,West,270,6.0,16.0,74,0.00,,,0.00,Weather View 32 v70,2013-01-05 10:14:00,
2013-01-05 05:19:00,31.0,23.7,29.56,WNW,292,2.0,16.0,74,0.00,,,0.00,Weather View 32 v70,2013-01-05 10:19:00,
2013-01-05 05:24:00,31.0,23.7,29.56,West,270,6.0,16.0,74,0.00,,,0.00,Weather View 32 v70,2013-01-05 10:24:00,
2013-01-05 05:29:00,31.0,23.7,29.57,West,270,1.0,13.0,74,0.00,,,0.00,Weather View 32 v70,2013-01-05 10:29:00,
2013-01-05 05:34:00,30.0,23.0,29.57,NW,315,6.0,13.0,75,0.00,,,0.00,Weather View 32 v70,2013-01-05 10:34:00,
2013-01-05 05:39:00,30.0,23.0,29.57,West,270,4.0,13.0,75,0.00,,,0.00,Weather View 32 v70,2013-01-05 10:39:00,
2013-01-05 05:44:00,30.0,23.0,29.57,WSW,247,4.0,12.0,75,0.00,,,0.00,Weather View 32 v70,2013-01-05 10:44:00,
2013-01-05 05:49:00,30.0,23.0,29.58,WNW,292,5.0,12.0,75,0.00,,,0.00,Weather View 32 v70,2013-01-05 10:49:00,
2013-01-05 05:54:00,30.0,22.7,29.58,West,270,6.0,12.0,74,0.00,,,0.00,Weather View 32 v70,2013-01-05 10:54:00,
2013-01-05 05:59:00,30.0,22.7,29.59,NW,315,3.0,12.0,74,0.00,,,0.00,Weather View 32 v70,2013-01-05 10:59:00,
2013-01-05 06:04:00,30.0,22.7,29.59,West,270,5.0,12.0,74,0.00,,,0.00,Weather View 32 v70,2013-01-05 11:04:00,
2013-01-05 06:09:00,30.0,22.7,29.59,West,270,5.0,12.0,74,0.00,,,0.00,Weather View 32 v70,2013-01-05 11:09:00,
2013-01-05 06:14:00,30.0,23.0,29.59,West,270,0.0,10.0,75,0.00,,,0.00,Weather View 32 v70,2013-01-05 11:14:00,
2013-01-05 06:19:00,30.0,23.0,29.61,WSW,247,1.0,10.0,75,0.00,,,0.00,Weather View 32 v70,2013-01-05 11:19:00,
2013-01-05 06:24:00,30.0,23.0,29.61,West,270,2.0,10.0,75,0.00,,,0.00,Weather View 32 v70,2013-01-05 11:24:00,
2013-01-05 06:29:00,30.0,23.0,29.61,West,270,2.0,10.0,75,0.00,,,0.00,Weather View 32 v70,2013-01-05 11:29:00,
2013-01-05 06:34:00,30.0,23.0,29.61,West,270,4.0,10.0,75,0.00,,,0.00,Weather View 32 v70,2013-01-05 11:34:00,
2013-01-05 06:39:00,30.0,22.7,29.61,West,270,1.0,10.0,74,0.00,,,0.00,Weather View 32 v70,2013-01-05 11:39:00,
2013-01-05 06:44:00,29.0,21.8,29.61,West,270,2.0,10.0,74,0.00,,,0.00,Weather View 32 v70,2013-01-05 11:44:00,
2013-01-05 06:49:00,29.0,21.8,29.63,West,270,4.0,10.0,74,0.00,,,0.00,Weather View 32 v70,2013-01-05 11:49:00,
2013-01-05 06:54:00,30.0,22.7,29.63,NW,315,1.0,10.0,74,0.00,,,0.00,Weather View 32 v70,2013-01-05 11:54:00,
2013-01-05 06:59:00,30.0,22.4,29.63,West,270,3.0,9.0,73,0.00,,,0.00,Weather View 32 v70,2013-01-05 11:59:00,
2013-01-05 07:04:00,30.0,22.4,29.63,West,270,6.0,9.0,73,0.00,,,0.00,Weather View 32 v70,2013-01-05 12:04:00,
2013-01-05 07:09:00,30.0,22.1,29.64,West,270,3.0,9.0,72,0.00,,,0.00,Weather View 32 v70,2013-01-05 12:09:00,
2013-01-05 07:14:00,30.0,22.1,29.64,West,270,4.0,9.0,72,0.00,,,0.00,Weather View 32 v70,2013-01-05 12:14:00,
2013-01-05 07:19:00,30.0,22.1,29.64,SW,225,7.0,9.0,72,0.00,,,0.00,Weather View 32 v70,2013-01-05 12:19:00,
2013-01-05 07:24:00,30.0,21.7,29.64,NW,315,4.0,8.0,71,0.00,,,0.00,Weather View 32 v70,2013-01-05 12:24:00,
2013-01-05 07:29:00,30.0,21.7,29.64,West,270,3.0,8.0,71,0.00,,,0.00,Weather View 32 v70,2013-01-05 12:29:00,
2013-01-05 07:34:00,30.0,21.7,29.64,West,270,5.0,8.0,71,0.00,,,0.00,Weather View 32 v70,2013-01-05 12:34:00,
2013-01-05 07:39:00,31.0,22.4,29.65,NW,315,4.0,8.0,70,0.00,,,0.00,Weather View 32 v70,2013-01-05 12:39:00,
2013-01-05 07:44:00,31.0,22.4,29.65,NW,315,4.0,8.0,70,0.00,,,0.00,Weather View 32 v70,2013-01-05 12:44:00,
2013-01-05 07:49:00,31.0,22.4,29.65,West,270,6.0,8.0,70,0.00,,,0.00,Weather View 32 v70,2013-01-05 12:49:00,
2013-01-05 07:54:00,31.0,22.0,29.65,NW,315,6.0,9.0,69,0.00,,,0.00,Weather View 32 v70,2013-01-05 12:54:00,
2013-01-05 07:59:00,32.0,22.6,29.65,WSW,247,4.0,11.0,68,0.00,,,0.00,Weather View 32 v70,2013-01-05 12:59:00,
2013-01-05 08:04:00,32.0,22.6,29.65,WNW,292,7.0,11.0,68,0.00,,,0.00,Weather View 32 v70,2013-01-05 13:04:00,
2013-01-05 08:10:00,32.0,22.3,29.67,West,270,1.0,11.0,67,0.00,,,0.00,Weather View 32 v70,2013-01-05 13:10:00,
2013-01-05 08:19:00,33.0,22.5,29.67,NW,315,3.0,11.0,65,0.00,,,0.00,Weather View 32 v70,2013-01-05 13:19:00,
2013-01-05 08:24:00,33.0,22.5,29.67,WNW,292,4.0,11.0,65,0.00,,,0.00,Weather View 32 v70,2013-01-05 13:24:00,
2013-01-05 08:29:00,33.0,22.5,29.68,WNW,292,7.0,11.0,65,0.00,,,0.00,Weather View 32 v70,2013-01-05 13:29:00,
2013-01-05 08:34:00,33.0,22.1,29.68,WNW,292,8.0,11.0,64,0.00,,,0.00,Weather View 32 v70,2013-01-05 13:34:00,
2013-01-05 08:39:00,34.0,23.1,29.69,NW,315,6.0,11.0,64,0.00,,,0.00,Weather View 32 v70,2013-01-05 13:39:00,
2013-01-05 08:44:00,34.0,22.7,29.69,WSW,247,7.0,11.0,63,0.00,,,0.00,Weather View 32 v70,2013-01-05 13:44:00,
2013-01-05 08:49:00,34.0,22.3,29.69,NW,315,5.0,11.0,62,0.00,,,0.00,Weather View 32 v70,2013-01-05 13:49:00,
2013-01-05 08:54:00,35.0,23.3,29.69,WNW,292,5.0,13.0,62,0.00,,,0.00,Weather View 32 v70,2013-01-05 13:54:00,
2013-01-05 08:59:00,35.0,23.3,29.69,West,270,6.0,13.0,62,0.00,,,0.00,Weather View 32 v70,2013-01-05 13:59:00,
2013-01-05 09:04:00,35.0,22.9,29.69,West,270,3.0,13.0,61,0.00,,,0.00,Weather View 32 v70,2013-01-05 14:04:00,
2013-01-05 09:09:00,35.0,22.5,29.70,WNW,292,7.0,13.0,60,0.00,,,0.00,Weather View 32 v70,2013-01-05 14:09:00,
2013-01-05 09:14:00,35.0,22.9,29.70,North,360,1.0,13.0,61,0.00,,,0.00,Weather View 32 v70,2013-01-05 14:14:00,
2013-01-05 09:19:00,36.0,23.4,29.71,NW,315,6.0,13.0,60,0.00,,,0.00,Weather View 32 v70,2013-01-05 14:19:00,
2013-01-05 09:24:00,36.0,23.4,29.71,WNW,292,4.0,13.0,60,0.00,,,0.00,Weather View 32 v70,2013-01-05 14:24:00,
2013-01-05 09:29:00,36.0,23.8,29.72,West,270,3.0,13.0,61,0.00,,,0.00,Weather View 32 v70,2013-01-05 14:29:00,
2013-01-05 09:34:00,35.0,23.7,29.72,NW,315,2.0,13.0,63,0.00,,,0.00,Weather View 32 v70,2013-01-05 14:34:00,
2013-01-05 09:39:00,35.0,23.3,29.74,WNW,292,2.0,13.0,62,0.00,,,0.00,Weather View 32 v70,2013-01-05 14:39:00,
2013-01-05 09:44:00,36.0,24.2,29.74,West,270,1.0,13.0,62,0.00,,,0.00,Weather View 32 v70,2013-01-05 14:44:00,
2013-01-05 09:49:00,36.0,24.6,29.75,West,270,4.0,13.0,63,0.00,,,0.00,Weather View 32 v70,2013-01-05 14:49:00,
2013-01-05 09:54:00,36.0,23.4,29.75,West,270,6.0,13.0,60,0.00,,,0.00,Weather View 32 v70,2013-01-05 14:54:00,
2013-01-05 09:59:00,36.0,22.6,29.75,West,270,3.0,13.0,58,0.00,,,0.00,Weather View 32 v70,2013-01-05 14:59:00,
2013-01-05 10:04:00,36.0,22.6,29.75,West,270,6.0,13.0,58,0.00,,,0.00,Weather View 32 v70,2013-01-05 15:04:00,
2013-01-05 10:09:00,36.0,22.2,29.75,West,270,6.0,16.0,57,0.00,,,0.00,Weather View 32 v70,2013-01-05 15:09:00,
2013-01-05 10:14:00,35.0,21.7,29.75,West,270,4.0,16.0,58,0.00,,,0.00,Weather View 32 v70,2013-01-05 15:14:00,
2013-01-05 10:19:00,35.0,22.1,29.76,NW,315,4.0,16.0,59,0.00,,,0.00,Weather View 32 v70,2013-01-05 15:19:00,
2013-01-05 10:24:00,36.0,21.4,29.76,South,180,2.0,16.0,55,0.00,,,0.00,Weather View 32 v70,2013-01-05 15:24:00,
2013-01-05 10:29:00,36.0,21.4,29.75,North,360,1.0,16.0,55,0.00,,,0.00,Weather View 32 v70,2013-01-05 15:29:00,
2013-01-05 10:34:00,36.0,21.0,29.75,WNW,292,2.0,16.0,54,0.00,,,0.00,Weather View 32 v70,2013-01-05 15:34:00,
2013-01-05 10:39:00,36.0,21.0,29.76,West,270,8.0,16.0,54,0.00,,,0.00,Weather View 32 v70,2013-01-05 15:39:00,
2013-01-05 10:44:00,36.0,20.1,29.76,North,360,1.0,16.0,52,0.00,,,0.00,Weather View 32 v70,2013-01-05 15:44:00,
2013-01-05 10:49:00,37.0,21.4,29.75,NW,315,1.0,16.0,53,0.00,,,0.00,Weather View 32 v70,2013-01-05 15:49:00,
2013-01-05 10:54:00,37.0,20.1,29.75,NW,315,4.0,16.0,50,0.00,,,0.00,Weather View 32 v70,2013-01-05 15:54:00,
2013-01-05 10:59:00,37.0,21.0,29.76,NW,315,3.0,16.0,52,0.00,,,0.00,Weather View 32 v70,2013-01-05 15:59:00,
2013-01-05 11:04:00,37.0,20.1,29.76,WNW,292,3.0,16.0,50,0.01,,,0.01,Weather View 32 v70,2013-01-05 16:04:00,
2013-01-05 11:09:00,38.0,20.0,29.76,NW,315,2.0,14.0,48,0.01,,,0.01,Weather View 32 v70,2013-01-05 16:09:00,
2013-01-05 11:14:00,38.0,20.0,29.76,WNW,292,0.0,14.0,48,0.01,,,0.01,Weather View 32 v70,2013-01-05 16:14:00,
2013-01-05 11:19:00,38.0,19.5,29.76,West,270,6.0,14.0,47,0.01,,,0.01,Weather View 32 v70,2013-01-05 16:19:00,
2013-01-05 11:24:00,38.0,20.0,29.76,NW,315,6.0,14.0,48,0.01,,,0.01,Weather View 32 v70,2013-01-05 16:24:00,
2013-01-05 11:29:00,37.0,19.6,29.77,West,270,6.0,14.0,49,0.01,,,0.01,Weather View 32 v70,2013-01-05 16:29:00,
2013-01-05 11:34:00,37.0,19.1,29.77,WNW,292,9.0,15.0,48,0.01,,,0.01,Weather View 32 v70,2013-01-05 16:34:00,
2013-01-05 11:39:00,38.0,20.0,29.76,West,270,2.0,15.0,48,0.01,,,0.01,Weather View 32 v70,2013-01-05 16:39:00,
2013-01-05 11:44:00,38.0,19.5,29.76,WNW,292,7.0,15.0,47,0.02,,,0.02,Weather View 32 v70,2013-01-05 16:44:00,
2013-01-05 11:49:00,38.0,19.5,29.77,West,270,7.0,15.0,47,0.02,,,0.02,Weather View 32 v70,2013-01-05 16:49:00,
2013-01-05 11:54:00,37.0,18.1,29.77,WSW,247,6.0,15.0,46,0.02,,,0.02,Weather View 32 v70,2013-01-05 16:54:00,
2013-01-05 11:59:00,38.0,19.0,29.77,WNW,292,7.0,15.0,46,0.02,,,0.02,Weather View 32 v70,2013-01-05 16:59:00,
2013-01-05 12:04:00,38.0,19.5,29.77,East,90,1.0,15.0,47,0.01,,,0.02,Weather View 32 v70,2013-01-05 17:04:00,
2013-01-05 12:09:00,38.0,19.0,29.77,West,270,6.0,15.0,46,0.01,,,0.02,Weather View 32 v70,2013-01-05 17:09:00,
2013-01-05 12:14:00,38.0,19.5,29.77,East,90,4.0,15.0,47,0.01,,,0.02,Weather View 32 v70,2013-01-05 17:14:00,
2013-01-05 12:19:00,38.0,20.0,29.77,NW,315,3.0,15.0,48,0.01,,,0.02,Weather View 32 v70,2013-01-05 17:19:00,
2013-01-05 12:24:00,38.0,19.5,29.77,West,270,4.0,15.0,47,0.01,,,0.02,Weather View 32 v70,2013-01-05 17:24:00,
2013-01-05 12:29:00,38.0,18.5,29.77,West,270,10.0,15.0,45,0.01,,,0.02,Weather View 32 v70,2013-01-05 17:29:00,
2013-01-05 12:34:00,39.0,19.4,29.77,West,270,6.0,14.0,45,0.02,,,0.03,Weather View 32 v70,2013-01-05 17:34:00,
2013-01-05 12:39:00,39.0,19.4,29.77,NW,315,3.0,14.0,45,0.02,,,0.03,Weather View 32 v70,2013-01-05 17:39:00,
2013-01-05 12:44:00,39.0,20.5,29.77,NW,315,5.0,14.0,47,0.01,,,0.03,Weather View 32 v70,2013-01-05 17:44:00,
2013-01-05 12:49:00,39.0,18.9,29.77,West,270,10.0,14.0,44,0.01,,,0.03,Weather View 32 v70,2013-01-05 17:49:00,
2013-01-05 12:54:00,39.0,18.9,29.77,NW,315,7.0,14.0,44,0.01,,,0.03,Weather View 32 v70,2013-01-05 17:54:00,
2013-01-05 12:59:00,39.0,19.4,29.77,NW,315,2.0,14.0,45,0.01,,,0.03,Weather View 32 v70,2013-01-05 17:59:00,
2013-01-05 13:04:00,39.0,19.4,29.77,NW,315,5.0,14.0,45,0.01,,,0.03,Weather View 32 v70,2013-01-05 18:04:00,
2013-01-05 13:09:00,39.0,19.4,29.78,SSE,157,2.0,14.0,45,0.01,,,0.03,Weather View 32 v70,2013-01-05 18:09:00,
2013-01-05 13:14:00,39.0,18.4,29.78,ESE,112,3.0,14.0,43,0.01,,,0.03,Weather View 32 v70,2013-01-05 18:14:00,
2013-01-05 13:19:00,39.0,17.8,29.78,NW,315,3.0,14.0,42,0.02,,,0.04,Weather View 32 v70,2013-01-05 18:19:00,
2013-01-05 13:24:00,39.0,19.4,29.78,West,270,0.0,14.0,45,0.02,,,0.04,Weather View 32 v70,2013-01-05 18:24:00,
2013-01-05 13:29:00,39.0,18.9,29.79,West,270,6.0,14.0,44,0.02,,,0.04,Weather View 32 v70,2013-01-05 18:29:00,
2013-01-05 13:34:00,39.0,18.4,29.79,SE,135,0.0,14.0,43,0.01,,,0.04,Weather View 32 v70,2013-01-05 18:34:00,
2013-01-05 13:39:00,39.0,19.4,29.79,WNW,292,3.0,14.0,45,0.01,,,0.04,Weather View 32 v70,2013-01-05 18:39:00,
2013-01-05 13:44:00,39.0,19.4,29.79,SW,225,3.0,14.0,45,0.01,,,0.04,Weather View 32 v70,2013-01-05 18:44:00,
2013-01-05 13:49:00,39.0,18.9,29.79,NW,315,0.0,14.0,44,0.02,,,0.05,Weather View 32 v70,2013-01-05 18:49:00,
2013-01-05 13:54:00,39.0,18.9,29.79,NW,315,2.0,13.0,44,0.02,,,0.05,Weather View 32 v70,2013-01-05 18:54:00,
2013-01-05 13:59:00,39.0,18.9,29.79,NW,315,0.0,13.0,44,0.02,,,0.05,Weather View 32 v70,2013-01-05 18:59:00,
2013-01-05 14:04:00,38.0,18.5,29.79,East,90,1.0,12.0,45,0.03,,,0.06,Weather View 32 v70,2013-01-05 19:04:00,
2013-01-05 14:09:00,38.0,19.0,29.79,West,270,5.0,12.0,46,0.03,,,0.06,Weather View 32 v70,2013-01-05 19:09:00,
2013-01-05 14:14:00,38.0,18.0,29.79,WNW,292,4.0,12.0,44,0.03,,,0.06,Weather View 32 v70,2013-01-05 19:14:00,
2013-01-05 14:19:00,37.0,19.1,29.79,East,90,1.0,12.0,48,0.02,,,0.06,Weather View 32 v70,2013-01-05 19:19:00,
2013-01-05 14:24:00,37.0,17.6,29.79,SW,225,0.0,12.0,45,0.02,,,0.06,Weather View 32 v70,2013-01-05 19:24:00,
2013-01-05 14:29:00,37.0,18.1,29.79,West,270,4.0,12.0,46,0.03,,,0.07,Weather View 32 v70,2013-01-05 19:29:00,
2013-01-05 14:34:00,37.0,17.6,29.79,North,360,5.0,12.0,45,0.03,,,0.07,Weather View 32 v70,2013-01-05 19:34:00,
2013-01-05 14:39:00,37.0,17.6,29.79,East,90,1.0,10.0,45,0.03,,,0.07,Weather View 32 v70,2013-01-05 19:39:00,
2013-01-05 14:44:00,37.0,17.6,29.79,SE,135,1.0,10.0,45,0.03,,,0.07,Weather View 32 v70,2013-01-05 19:44:00,
2013-01-05 14:49:00,36.0,16.7,29.80,ESE,112,0.0,10.0,45,0.02,,,0.07,Weather View 32 v70,2013-01-05 19:49:00,
2013-01-05 14:54:00,36.0,16.2,29.80,WNW,292,4.0,10.0,44,0.02,,,0.07,Weather View 32 v70,2013-01-05 19:54:00,
2013-01-05 14:59:00,36.0,17.2,29.80,NNW,337,1.0,10.0,46,0.02,,,0.07,Weather View 32 v70,2013-01-05 19:59:00,
2013-01-05 15:04:00,36.0,16.7,29.80,South,180,2.0,10.0,45,0.01,,,0.07,Weather View 32 v70,2013-01-05 20:04:00,
2013-01-05 15:09:00,36.0,16.7,29.80,SE,135,2.0,10.0,45,0.01,,,0.07,Weather View 32 v70,2013-01-05 20:09:00,
2013-01-05 15:14:00,35.0,16.3,29.80,West,270,1.0,10.0,46,0.01,,,0.07,Weather View 32 v70,2013-01-05 20:14:00,
2013-01-05 15:19:00,35.0,16.3,29.81,ESE,112,3.0,9.0,46,0.02,,,0.08,Weather View 32 v70,2013-01-05 20:19:00,
2013-01-05 15:24:00,35.0,16.8,29.81,North,360,1.0,9.0,47,0.02,,,0.08,Weather View 32 v70,2013-01-05 20:24:00,
2013-01-05 15:29:00,36.0,16.7,29.81,West,270,0.0,9.0,45,0.01,,,0.08,Weather View 32 v70,2013-01-05 20:29:00,
2013-01-05 15:34:00,36.0,17.2,29.81,South,180,1.0,9.0,46,0.01,,,0.08,Weather View 32 v70,2013-01-05 20:34:00,
2013-01-05 15:39:00,36.0,16.2,29.82,East,90,0.0,9.0,44,0.01,,,0.08,Weather View 32 v70,2013-01-05 20:39:00,
2013-01-05 15:44:00,36.0,16.2,29.82,North,360,0.0,9.0,44,0.01,,,0.08,Weather View 32 v70,2013-01-05 20:44:00,
2013-01-05 15:49:00,36.0,16.7,29.82,North,360,0.0,7.0,45,0.01,,,0.08,Weather View 32 v70,2013-01-05 20:49:00,
2013-01-05 15:54:00,35.0,15.8,29.82,North,360,0.0,7.0,45,0.01,,,0.08,Weather View 32 v70,2013-01-05 20:54:00,
2013-01-05 15:59:00,35.0,17.3,29.82,North,360,0.0,7.0,48,0.01,,,0.08,Weather View 32 v70,2013-01-05 20:59:00,
2013-01-05 16:04:00,34.0,15.9,29.82,North,360,0.0,7.0,47,0.01,,,0.08,Weather View 32 v70,2013-01-05 21:04:00,
2013-01-05 16:09:00,34.0,16.8,29.83,North,360,0.0,7.0,49,0.01,,,0.08,Weather View 32 v70,2013-01-05 21:09:00,
2013-01-05 16:14:00,33.0,15.4,29.83,NW,315,0.0,7.0,48,0.01,,,0.08,Weather View 32 v70,2013-01-05 21:14:00,
2013-01-05 16:19:00,33.0,16.4,29.85,NW,315,0.0,7.0,50,0.00,,,0.08,Weather View 32 v70,2013-01-05 21:19:00,
2013-01-05 16:24:00,32.0,15.4,29.85,NW,315,1.0,7.0,50,0.00,,,0.08,Weather View 32 v70,2013-01-05 21:24:00,
2013-01-05 16:29:00,32.0,16.4,29.86,NW,315,0.0,7.0,52,0.00,,,0.08,Weather View 32 v70,2013-01-05 21:29:00,
2013-01-05 16:34:00,31.0,15.4,29.86,NW,315,0.0,7.0,52,0.00,,,0.08,Weather View 32 v70,2013-01-05 21:34:00,
2013-01-05 16:39:00,30.0,14.9,29.87,NW,315,0.0,7.0,53,0.01,,,0.09,Weather View 32 v70,2013-01-05 21:39:00,
2013-01-05 16:44:00,30.0,15.8,29.87,NW,315,0.0,6.0,55,0.01,,,0.09,Weather View 32 v70,2013-01-05 21:44:00,
2013-01-05 16:49:00,29.0,14.8,29.89,NW,315,0.0,6.0,55,0.01,,,0.09,Weather View 32 v70,2013-01-05 21:49:00,
2013-01-05 16:54:00,28.0,13.9,29.89,NW,315,0.0,6.0,55,0.01,,,0.09,Weather View 32 v70,2013-01-05 21:54:00,
2013-01-05 16:59:00,28.0,14.3,29.89,NW,315,0.0,6.0,56,0.01,,,0.09,Weather View 32 v70,2013-01-05 21:59:00,
2013-01-05 17:04:00,28.0,14.3,29.89,NW,315,0.0,6.0,56,0.01,,,0.09,Weather View 32 v70,2013-01-05 22:04:00,
2013-01-05 17:09:00,27.0,14.2,29.90,NW,315,0.0,6.0,58,0.01,,,0.09,Weather View 32 v70,2013-01-05 22:09:00,
2013-01-05 17:14:00,27.0,14.6,29.90,NW,315,0.0,3.0,59,0.01,,,0.09,Weather View 32 v70,2013-01-05 22:14:00,
2013-01-05 17:24:00,26.0,15.1,29.90,NW,315,0.0,2.0,63,0.01,,,0.09,Weather View 32 v70,2013-01-05 22:24:00,
2013-01-05 17:29:00,26.0,14.4,29.90,NW,315,0.0,2.0,61,0.01,,,0.09,Weather View 32 v70,2013-01-05 22:29:00,
2013-01-05 17:34:00,26.0,14.8,29.90,NW,315,0.0,1.0,62,0.01,,,0.09,Weather View 32 v70,2013-01-05 22:34:00,
2013-01-05 17:39:00,25.0,13.8,29.90,NW,315,0.0,1.0,62,0.00,,,0.09,Weather View 32 v70,2013-01-05 22:39:00,
2013-01-05 17:44:00,25.0,13.8,29.90,NW,315,0.0,1.0,62,0.00,,,0.09,Weather View 32 v70,2013-01-05 22:44:00,
2013-01-05 17:49:00,25.0,13.8,29.90,NW,315,0.0,1.0,62,0.00,,,0.09,Weather View 32 v70,2013-01-05 22:49:00,
2013-01-05 17:54:00,25.0,14.5,29.90,NW,315,0.0,1.0,64,0.00,,,0.09,Weather View 32 v70,2013-01-05 22:54:00,
2013-01-05 17:59:00,25.0,14.2,29.91,NW,315,0.0,1.0,63,0.00,,,0.09,Weather View 32 v70,2013-01-05 22:59:00,
2013-01-05 18:04:00,25.0,14.2,29.91,NW,315,0.0,1.0,63,0.00,,,0.09,Weather View 32 v70,2013-01-05 23:04:00,
2013-01-05 18:09:00,25.0,14.5,29.91,NW,315,0.0,1.0,64,0.00,,,0.09,Weather View 32 v70,2013-01-05 23:09:00,
2013-01-05 18:14:00,24.0,13.9,29.91,NW,315,0.0,1.0,65,0.00,,,0.09,Weather View 32 v70,2013-01-05 23:14:00,
2013-01-05 18:19:00,24.0,13.6,29.92,NW,315,0.0,1.0,64,0.00,,,0.09,Weather View 32 v70,2013-01-05 23:19:00,
2013-01-05 18:24:00,24.0,13.6,29.92,NW,315,0.0,2.0,64,0.00,,,0.09,Weather View 32 v70,2013-01-05 23:24:00,
2013-01-05 18:29:00,24.0,13.6,29.91,NW,315,0.0,2.0,64,0.00,,,0.09,Weather View 32 v70,2013-01-05 23:29:00,
2013-01-05 18:34:00,25.0,14.5,29.91,NW,315,0.0,2.0,64,0.00,,,0.09,Weather View 32 v70,2013-01-05 23:34:00,
2013-01-05 18:39:00,25.0,14.5,29.92,NW,315,0.0,2.0,64,0.00,,,0.09,Weather View 32 v70,2013-01-05 23:39:00,
2013-01-05 18:44:00,25.0,14.2,29.92,NW,315,0.0,2.0,63,0.00,,,0.09,Weather View 32 v70,2013-01-05 23:44:00,
2013-01-05 18:49:00,25.0,14.2,29.92,NW,315,0.0,2.0,63,0.00,,,0.09,Weather View 32 v70,2013-01-05 23:49:00,
2013-01-05 18:54:00,24.0,13.6,29.92,NW,315,0.0,2.0,64,0.00,,,0.09,Weather View 32 v70,2013-01-05 23:54:00,
2013-01-05 18:59:00,24.0,13.6,29.93,NW,315,0.0,2.0,64,0.00,,,0.09,Weather View 32 v70,2013-01-05 23:59:00,
2013-01-05 19:04:00,24.0,13.9,29.93,NW,315,0.0,2.0,65,0.00,,,0.09,Weather View 32 v70,2013-01-06 00:04:00,
2013-01-05 19:09:00,24.0,13.9,29.94,NW,315,0.0,2.0,65,0.00,,,0.09,Weather View 32 v70,2013-01-06 00:09:00,
2013-01-05 19:14:00,24.0,13.9,29.94,NW,315,0.0,2.0,65,0.00,,,0.09,Weather View 32 v70,2013-01-06 00:14:00,
2013-01-05 19:19:00,24.0,13.9,29.94,NW,315,0.0,2.0,65,0.00,,,0.09,Weather View 32 v70,2013-01-06 00:19:00,
2013-01-05 19:24:00,24.0,13.9,29.94,NW,315,0.0,1.0,65,0.00,,,0.09,Weather View 32 v70,2013-01-06 00:24:00,
2013-01-05 19:29:00,23.0,13.0,29.93,NW,315,0.0,1.0,65,0.00,,,0.09,Weather View 32 v70,2013-01-06 00:29:00,
2013-01-05 19:34:00,23.0,13.7,29.93,NW,315,0.0,1.0,67,0.00,,,0.09,Weather View 32 v70,2013-01-06 00:34:00,
2013-01-05 19:39:00,23.0,13.7,29.93,NW,315,0.0,1.0,67,0.00,,,0.09,Weather View 32 v70,2013-01-06 00:39:00,
2013-01-05 19:44:00,22.0,13.1,29.93,NW,315,0.0,1.0,68,0.00,,,0.09,Weather View 32 v70,2013-01-06 00:44:00,
2013-01-05 19:49:00,22.0,13.4,29.94,NW,315,0.0,1.0,69,0.00,,,0.09,Weather View 32 v70,2013-01-06 00:49:00,
2013-01-05 19:54:00,22.0,13.4,29.94,NW,315,0.0,1.0,69,0.00,,,0.09,Weather View 32 v70,2013-01-06 00:54:00,
2013-01-05 19:59:00,22.0,13.4,29.94,NW,315,0.0,1.0,69,0.00,,,0.09,Weather View 32 v70,2013-01-06 00:59:00,
2013-01-05 20:04:00,22.0,14.4,29.94,NW,315,0.0,1.0,72,0.00,,,0.09,Weather View 32 v70,2013-01-06 01:04:00,
2013-01-05 20:09:00,22.0,14.4,29.93,NW,315,0.0,2.0,72,0.00,,,0.09,Weather View 32 v70,2013-01-06 01:09:00,
2013-01-05 20:14:00,22.0,14.7,29.93,NW,315,0.0,2.0,73,0.00,,,0.09,Weather View 32 v70,2013-01-06 01:14:00,
2013-01-05 20:19:00,22.0,14.7,29.94,NW,315,0.0,2.0,73,0.00,,,0.09,Weather View 32 v70,2013-01-06 01:19:00,
2013-01-05 20:24:00,22.0,15.0,29.94,NW,315,0.0,2.0,74,0.00,,,0.09,Weather View 32 v70,2013-01-06 01:24:00,
2013-01-05 20:29:00,22.0,15.0,29.92,NW,315,0.0,2.0,74,0.00,,,0.09,Weather View 32 v70,2013-01-06 01:29:00,
2013-01-05 20:34:00,22.0,14.7,29.92,South,180,1.0,4.0,73,0.00,,,0.09,Weather View 32 v70,2013-01-06 01:34:00,
2013-01-05 20:39:00,22.0,14.4,29.92,South,180,0.0,4.0,72,0.00,,,0.09,Weather View 32 v70,2013-01-06 01:39:00,
2013-01-05 20:44:00,22.0,14.7,29.92,South,180,2.0,4.0,73,0.00,,,0.09,Weather View 32 v70,2013-01-06 01:44:00,
2013-01-05 20:49:00,22.0,14.7,29.94,South,180,0.0,4.0,73,0.00,,,0.09,Weather View 32 v70,2013-01-06 01:49:00,
2013-01-05 20:54:00,22.0,15.0,29.94,South,180,0.0,4.0,74,0.00,,,0.09,Weather View 32 v70,2013-01-06 01:54:00,
2013-01-05 20:59:00,21.0,14.3,29.92,South,180,0.0,4.0,75,0.00,,,0.09,Weather View 32 v70,2013-01-06 01:59:00,
2013-01-05 21:04:00,21.0,14.6,29.92,South,180,0.0,4.0,76,0.00,,,0.09,Weather View 32 v70,2013-01-06 02:04:00,
2013-01-05 21:09:00,21.0,14.6,29.93,South,180,0.0,4.0,76,0.00,,,0.09,Weather View 32 v70,2013-01-06 02:09:00,
2013-01-05 21:14:00,21.0,14.3,29.93,South,180,0.0,4.0,75,0.00,,,0.09,Weather View 32 v70,2013-01-06 02:14:00,
2013-01-05 21:19:00,21.0,14.6,29.92,South,180,0.0,4.0,76,0.00,,,0.09,Weather View 32 v70,2013-01-06 02:19:00,
2013-01-05 21:24:00,21.0,14.6,29.92,South,180,0.0,4.0,76,0.00,,,0.09,Weather View 32 v70,2013-01-06 02:24:00,
2013-01-05 21:29:00,21.0,14.3,29.93,South,180,0.0,4.0,75,0.00,,,0.09,Weather View 32 v70,2013-01-06 02:29:00,
2013-01-05 21:34:00,22.0,15.0,29.93,South,180,0.0,3.0,74,0.00,,,0.09,Weather View 32 v70,2013-01-06 02:34:00,
2013-01-05 21:39:00,21.0,13.7,29.92,SW,225,1.0,3.0,73,0.00,,,0.09,Weather View 32 v70,2013-01-06 02:39:00,
2013-01-05 21:44:00,22.0,14.7,29.92,SW,225,0.0,3.0,73,0.00,,,0.09,Weather View 32 v70,2013-01-06 02:44:00,
2013-01-05 21:49:00,21.0,14.0,29.93,SW,225,0.0,2.0,74,0.00,,,0.09,Weather View 32 v70,2013-01-06 02:49:00,
2013-01-05 21:54:00,21.0,14.3,29.93,SW,225,0.0,2.0,75,0.00,,,0.09,Weather View 32 v70,2013-01-06 02:54:00,
2013-01-05 21:59:00,21.0,14.3,29.92,SW,225,0.0,2.0,75,0.00,,,0.09,Weather View 32 v70,2013-01-06 02:59:00,
2013-01-05 22:04:00,20.0,14.0,29.92,SW,225,0.0,2.0,77,0.00,,,0.09,Weather View 32 v70,2013-01-06 03:04:00,
2013-01-05 22:09:00,20.0,14.2,29.92,SW,225,0.0,2.0,78,0.00,,,0.09,Weather View 32 v70,2013-01-06 03:09:00,
2013-01-05 22:14:00,19.0,13.3,29.92,SW,225,0.0,2.0,78,0.00,,,0.09,Weather View 32 v70,2013-01-06 03:14:00,
2013-01-05 22:19:00,20.0,14.0,29.92,SW,225,0.0,2.0,77,0.00,,,0.09,Weather View 32 v70,2013-01-06 03:19:00,
2013-01-05 22:24:00,20.0,14.0,29.92,SW,225,0.0,2.0,77,0.00,,,0.09,Weather View 32 v70,2013-01-06 03:24:00,
2013-01-05 22:29:00,20.0,14.2,29.94,SW,225,0.0,2.0,78,0.00,,,0.09,Weather View 32 v70,2013-01-06 03:29:00,
2013-01-05 22:34:00,19.0,13.3,29.94,SW,225,0.0,2.0,78,0.00,,,0.09,Weather View 32 v70,2013-01-06 03:34:00,
2013-01-05 22:39:00,20.0,14.5,29.93,SW,225,1.0,2.0,79,0.00,,,0.09,Weather View 32 v70,2013-01-06 03:39:00,
2013-01-05 22:44:00,20.0,14.0,29.93,SW,225,0.0,2.0,77,0.00,,,0.09,Weather View 32 v70,2013-01-06 03:44:00,
2013-01-05 22:49:00,20.0,14.2,29.94,SW,225,0.0,2.0,78,0.00,,,0.09,Weather View 32 v70,2013-01-06 03:49:00,
2013-01-05 22:54:00,21.0,14.6,29.94,SW,225,0.0,2.0,76,0.00,,,0.09,Weather View 32 v70,2013-01-06 03:54:00,
2013-01-05 22:59:00,21.0,14.0,29.93,SW,225,0.0,2.0,74,-0.09,,,0.00,Weather View 32 v70,2013-01-06 03:59:00,
2013-01-05 23:04:00,21.0,14.3,29.93,SW,225,0.0,2.0,75,-0.09,,,0.00,Weather View 32 v70,2013-01-06 04:04:00,
2013-01-05 23:09:00,21.0,14.6,29.91,SW,225,0.0,2.0,76,-0.09,,,0.00,Weather View 32 v70,2013-01-06 04:09:00,
2013-01-05 23:14:00,21.0,14.3,29.91,South,180,0.0,2.0,75,-0.09,,,0.00,Weather View 32 v70,2013-01-06 04:14:00,
2013-01-05 23:19:00,21.0,14.6,29.90,South,180,0.0,2.0,76,-0.09,,,0.00,Weather View 32 v70,2013-01-06 04:19:00,
2013-01-05 23:24:00,21.0,14.6,29.90,South,180,0.0,2.0,76,-0.09,,,0.00,Weather View 32 v70,2013-01-06 04:24:00,
2013-01-05 23:29:00,21.0,14.6,29.90,South,180,0.0,2.0,76,-0.09,,,0.00,Weather View 32 v70,2013-01-06 04:29:00,
2013-01-05 23:34:00,21.0,14.9,29.90,South,180,0.0,2.0,77,-0.09,,,0.00,Weather View 32 v70,2013-01-06 04:34:00,
2013-01-05 23:39:00,21.0,14.9,29.90,South,180,0.0,2.0,77,-0.09,,,0.00,Weather View 32 v70,2013-01-06 04:39:00,
2013-01-05 23:44:00,21.0,14.9,29.90,South,180,0.0,2.0,77,-0.09,,,0.00,Weather View 32 v70,2013-01-06 04:44:00,
2013-01-05 23:49:00,21.0,14.9,29.90,South,180,0.0,2.0,77,-0.09,,,0.00,Weather View 32 v70,2013-01-06 04:49:00,
2013-01-05 23:59:00,20.0,14.2,29.90,South,180,0.0,2.0,78,0.00,,,0.00,Weather View 32 v70,2013-01-06 04:59:00,